Time,TemperatureF,DewpointF,PressureIn,WindDirection,WindDirectionDegrees,WindSpeedMPH,WindSpeedGustMPH,Humidity,HourlyPrecipIn,Conditions,Clouds,dailyrainin,SoftwareType,DateUTC
2013-12-02 00:02:00,26.1,22.1,29.49,SSE,158,0.0,0.0,85,0.00,,,0.00,WUHU216HW,2013-12-02 06:02:00,
2013-12-02 00:07:00,26.1,22.4,29.49,SSE,158,0.0,0.0,86,0.00,,,0.00,WUHU216HW,2013-12-02 06:07:00,
2013-12-02 00:12:00,26.3,22.6,29.48,SE,135,0.0,1.1,86,0.00,,,0.00,WUHU216HW,2013-12-02 06:12:00,
2013-12-02 00:17:00,26.3,22.6,29.48,SE,135,0.0,1.1,86,0.00,,,0.00,WUHU216HW,2013-12-02 06:17:00,
2013-12-02 00:22:00,26.3,22.6,29.48,SE,135,0.0,0.0,86,0.00,,,0.00,WUHU216HW,2013-12-02 06:22:00,
2013-12-02 00:27:00,26.3,22.6,29.48,SE,135,0.0,0.2,86,0.00,,,0.00,WUHU216HW,2013-12-02 06:27:00,
2013-12-02 00:32:00,26.3,22.6,29.48,SE,135,0.0,0.4,86,0.00,,,0.00,WUHU216HW,2013-12-02 06:32:00,
2013-12-02 00:37:00,26.3,22.6,29.47,SE,135,0.7,0.7,86,0.00,,,0.00,WUHU216HW,2013-12-02 06:37:00,
2013-12-02 00:42:00,26.5,22.8,29.47,ESE,113,1.6,1.6,86,0.00,,,0.00,WUHU216HW,2013-12-02 06:42:00,
2013-12-02 00:47:00,26.5,22.8,29.47,ESE,113,1.1,1.6,86,0.00,,,0.00,WUHU216HW,2013-12-02 06:47:00,
2013-12-02 00:52:00,26.5,22.8,29.47,ESE,113,0.4,1.6,86,0.00,,,0.00,WUHU216HW,2013-12-02 06:52:00,
2013-12-02 00:57:00,26.5,22.8,29.47,East,90,0.7,1.1,86,0.00,,,0.00,WUHU216HW,2013-12-02 06:57:00,
2013-12-02 01:02:00,26.5,22.8,29.47,East,90,0.2,0.7,86,0.00,,,0.00,WUHU216HW,2013-12-02 07:02:00,
2013-12-02 01:07:00,26.5,22.8,29.47,East,90,0.9,0.9,86,0.00,,,0.00,WUHU216HW,2013-12-02 07:07:00,
2013-12-02 01:12:00,26.5,23.0,29.47,East,90,0.2,0.9,87,0.00,,,0.00,WUHU216HW,2013-12-02 07:12:00,
2013-12-02 01:17:00,26.5,23.0,29.47,East,90,0.7,0.9,87,0.00,,,0.00,WUHU216HW,2013-12-02 07:17:00,
2013-12-02 01:22:00,26.5,23.0,29.46,East,90,0.2,1.1,87,0.00,,,0.00,WUHU216HW,2013-12-02 07:22:00,
2013-12-02 01:27:00,26.6,23.2,29.46,East,90,0.0,1.1,87,0.00,,,0.00,WUHU216HW,2013-12-02 07:27:00,
2013-12-02 01:32:00,26.6,23.2,29.46,East,90,0.0,0.2,87,0.00,,,0.00,WUHU216HW,2013-12-02 07:32:00,
2013-12-02 01:37:00,26.6,23.2,29.46,East,90,0.0,0.0,87,0.00,,,0.00,WUHU216HW,2013-12-02 07:37:00,
2013-12-02 01:42:00,26.6,23.2,29.46,East,90,0.0,0.0,87,0.00,,,0.00,WUHU216HW,2013-12-02 07:42:00,
2013-12-02 01:47:00,26.6,23.2,29.46,East,90,0.0,0.0,87,0.00,,,0.00,WUHU216HW,2013-12-02 07:47:00,
2013-12-02 01:52:00,26.5,23.0,29.46,East,90,0.0,0.0,87,0.00,,,0.00,WUHU216HW,2013-12-02 07:52:00,
2013-12-02 01:57:00,26.3,23.0,29.46,East,90,0.0,0.0,87,0.00,,,0.00,WUHU216HW,2013-12-02 07:57:00,
2013-12-02 02:02:00,26.3,23.0,29.46,East,90,0.0,0.0,87,0.00,,,0.00,WUHU216HW,2013-12-02 08:02:00,
2013-12-02 02:07:00,26.3,22.6,29.46,East,90,0.0,0.0,86,0.00,,,0.00,WUHU216HW,2013-12-02 08:07:00,
2013-12-02 02:12:00,26.1,22.4,29.46,East,90,0.0,0.0,86,0.00,,,0.00,WUHU216HW,2013-12-02 08:12:00,
2013-12-02 02:17:00,25.9,22.3,29.46,East,90,0.0,0.0,86,0.00,,,0.00,WUHU216HW,2013-12-02 08:17:00,
2013-12-02 02:22:00,25.6,22.0,29.46,East,90,0.7,0.7,86,0.00,,,0.00,WUHU216HW,2013-12-02 08:22:00,
2013-12-02 02:27:00,25.4,22.1,29.46,East,90,0.2,0.7,87,0.00,,,0.00,WUHU216HW,2013-12-02 08:27:00,
2013-12-02 02:32:00,25.2,21.9,29.46,East,90,0.0,0.7,87,0.00,,,0.00,WUHU216HW,2013-12-02 08:32:00,
2013-12-02 02:37:00,25.2,21.9,29.46,East,90,0.0,0.2,87,0.00,,,0.00,WUHU216HW,2013-12-02 08:37:00,
2013-12-02 02:42:00,25.0,21.7,29.46,East,90,0.0,0.0,87,0.00,,,0.00,WUHU216HW,2013-12-02 08:42:00,
2013-12-02 02:47:00,24.8,21.5,29.46,East,90,0.0,0.4,87,0.00,,,0.00,WUHU216HW,2013-12-02 08:47:00,
2013-12-02 02:52:00,24.8,21.5,29.45,East,90,0.0,0.4,87,0.00,,,0.00,WUHU216HW,2013-12-02 08:52:00,
2013-12-02 02:57:00,24.8,21.5,29.45,East,90,0.0,0.0,87,0.00,,,0.00,WUHU216HW,2013-12-02 08:57:00,
2013-12-02 03:02:00,24.8,21.5,29.45,East,90,0.0,0.0,87,0.00,,,0.00,WUHU216HW,2013-12-02 09:02:00,
2013-12-02 03:07:00,24.8,21.5,29.45,East,90,0.0,0.0,87,0.00,,,0.00,WUHU216HW,2013-12-02 09:07:00,
2013-12-02 03:12:00,24.3,21.0,29.45,East,90,0.0,0.0,87,0.00,,,0.00,WUHU216HW,2013-12-02 09:12:00,
2013-12-02 03:17:00,24.1,20.8,29.45,East,90,0.0,0.0,87,0.00,,,0.00,WUHU216HW,2013-12-02 09:17:00,
2013-12-02 03:22:00,23.9,20.6,29.45,East,90,0.0,0.0,87,0.00,,,0.00,WUHU216HW,2013-12-02 09:22:00,
2013-12-02 03:27:00,23.6,20.3,29.45,East,90,0.0,0.0,87,0.00,,,0.00,WUHU216HW,2013-12-02 09:27:00,
2013-12-02 03:32:00,23.4,20.1,29.45,East,90,0.0,0.0,87,0.00,,,0.00,WUHU216HW,2013-12-02 09:32:00,
2013-12-02 03:37:00,23.4,20.1,29.45,East,90,0.0,0.0,87,0.00,,,0.00,WUHU216HW,2013-12-02 09:37:00,
2013-12-02 03:42:00,23.4,20.1,29.45,East,90,0.0,0.0,87,0.00,,,0.00,WUHU216HW,2013-12-02 09:42:00,
2013-12-02 03:47:00,23.4,20.1,29.45,East,90,0.0,0.0,87,0.00,,,0.00,WUHU216HW,2013-12-02 09:47:00,
2013-12-02 03:52:00,23.2,19.9,29.45,East,90,0.0,0.0,87,0.00,,,0.00,WUHU216HW,2013-12-02 09:52:00,
2013-12-02 03:57:00,23.0,19.7,29.45,East,90,0.0,0.0,87,0.00,,,0.00,WUHU216HW,2013-12-02 09:57:00,
2013-12-02 04:02:00,22.7,19.1,29.45,East,90,0.0,0.0,86,0.00,,,0.00,WUHU216HW,2013-12-02 10:02:00,
2013-12-02 04:07:00,22.7,19.1,29.44,East,90,0.0,0.0,86,0.00,,,0.00,WUHU216HW,2013-12-02 10:07:00,
2013-12-02 04:12:00,22.7,19.1,29.45,East,90,0.0,0.0,86,0.00,,,0.00,WUHU216HW,2013-12-02 10:12:00,
2013-12-02 04:17:00,22.7,19.1,29.45,East,90,0.0,0.0,86,0.00,,,0.00,WUHU216HW,2013-12-02 10:17:00,
2013-12-02 04:22:00,22.3,18.7,29.45,East,90,0.0,0.0,86,0.00,,,0.00,WUHU216HW,2013-12-02 10:22:00,
2013-12-02 04:27:00,22.1,18.5,29.44,East,90,0.0,0.0,86,0.00,,,0.00,WUHU216HW,2013-12-02 10:27:00,
2013-12-02 04:32:00,22.1,18.5,29.44,ENE,68,0.2,1.1,86,0.00,,,0.00,WUHU216HW,2013-12-02 10:32:00,
2013-12-02 04:37:00,22.1,18.5,29.44,ENE,68,1.6,1.6,86,0.00,,,0.00,WUHU216HW,2013-12-02 10:37:00,
2013-12-02 04:42:00,22.0,18.6,29.44,NE,45,1.1,1.8,87,0.00,,,0.00,WUHU216HW,2013-12-02 10:42:00,
2013-12-02 04:47:00,22.0,18.6,29.43,NE,45,1.1,1.8,87,0.00,,,0.00,WUHU216HW,2013-12-02 10:47:00,
2013-12-02 04:52:00,22.0,18.6,29.43,NE,45,1.1,1.1,87,0.00,,,0.00,WUHU216HW,2013-12-02 10:52:00,
2013-12-02 04:57:00,22.0,18.6,29.43,NE,45,2.2,2.2,87,0.00,,,0.00,WUHU216HW,2013-12-02 10:57:00,
2013-12-02 05:02:00,22.0,18.6,29.43,NE,45,2.0,2.2,87,0.00,,,0.00,WUHU216HW,2013-12-02 11:02:00,
2013-12-02 05:07:00,22.0,18.6,29.43,NE,45,1.1,2.2,87,0.00,,,0.00,WUHU216HW,2013-12-02 11:07:00,
2013-12-02 05:12:00,22.0,18.6,29.43,NE,45,0.4,1.1,87,0.00,,,0.00,WUHU216HW,2013-12-02 11:12:00,
2013-12-02 05:17:00,22.0,18.6,29.43,NE,45,1.1,1.1,87,0.00,,,0.00,WUHU216HW,2013-12-02 11:17:00,
2013-12-02 05:22:00,22.0,18.6,29.43,NE,45,0.4,1.3,87,0.00,,,0.00,WUHU216HW,2013-12-02 11:22:00,
2013-12-02 05:27:00,22.0,18.6,29.43,NE,45,0.0,1.3,87,0.00,,,0.00,WUHU216HW,2013-12-02 11:27:00,
2013-12-02 05:32:00,22.0,18.6,29.43,NE,45,0.9,0.9,87,0.00,,,0.00,WUHU216HW,2013-12-02 11:32:00,
2013-12-02 05:37:00,22.0,18.6,29.42,ENE,68,0.4,1.3,87,0.00,,,0.00,WUHU216HW,2013-12-02 11:37:00,
2013-12-02 05:42:00,22.0,18.6,29.42,ENE,68,0.0,1.3,87,0.00,,,0.00,WUHU216HW,2013-12-02 11:42:00,
2013-12-02 05:47:00,22.0,18.6,29.42,ENE,68,0.0,0.4,87,0.00,,,0.00,WUHU216HW,2013-12-02 11:47:00,
2013-12-02 05:52:00,22.0,18.6,29.42,ENE,68,0.4,0.4,87,0.00,,,0.00,WUHU216HW,2013-12-02 11:52:00,
2013-12-02 05:57:00,22.0,18.6,29.42,ENE,68,0.2,0.4,87,0.00,,,0.00,WUHU216HW,2013-12-02 11:57:00,
2013-12-02 06:02:00,22.0,18.6,29.42,ENE,68,0.4,0.4,87,0.00,,,0.00,WUHU216HW,2013-12-02 12:02:00,
2013-12-02 06:07:00,22.0,18.6,29.42,ENE,68,0.0,0.4,87,0.00,,,0.00,WUHU216HW,2013-12-02 12:07:00,
2013-12-02 06:12:00,22.0,18.6,29.42,ENE,68,0.0,0.4,87,0.00,,,0.00,WUHU216HW,2013-12-02 12:12:00,
2013-12-02 06:17:00,22.0,18.6,29.41,ENE,68,0.0,0.0,87,0.00,,,0.00,WUHU216HW,2013-12-02 12:17:00,
2013-12-02 06:22:00,22.0,18.6,29.42,ENE,68,0.0,0.0,87,0.00,,,0.00,WUHU216HW,2013-12-02 12:22:00,
2013-12-02 06:27:00,22.0,18.6,29.42,ENE,68,0.2,0.2,87,0.00,,,0.00,WUHU216HW,2013-12-02 12:27:00,
2013-12-02 06:32:00,22.0,18.6,29.42,ENE,68,0.2,0.2,87,0.00,,,0.00,WUHU216HW,2013-12-02 12:32:00,
2013-12-02 06:37:00,21.8,18.5,29.42,ENE,68,0.0,0.2,87,0.00,,,0.00,WUHU216HW,2013-12-02 12:37:00,
2013-12-02 06:42:00,21.8,18.5,29.42,ENE,68,0.0,0.2,87,0.00,,,0.00,WUHU216HW,2013-12-02 12:42:00,
2013-12-02 06:47:00,22.0,18.6,29.42,ENE,68,0.4,0.4,87,0.00,,,0.00,WUHU216HW,2013-12-02 12:47:00,
2013-12-02 06:52:00,22.0,18.6,29.41,ESE,113,0.9,0.9,87,0.00,,,0.00,WUHU216HW,2013-12-02 12:52:00,
2013-12-02 06:57:00,22.0,18.6,29.41,ESE,113,0.7,0.9,87,0.00,,,0.00,WUHU216HW,2013-12-02 12:57:00,
2013-12-02 07:02:00,22.1,18.8,29.41,ESE,113,0.4,0.9,87,0.00,,,0.00,WUHU216HW,2013-12-02 13:02:00,
2013-12-02 07:07:00,22.0,18.6,29.41,ESE,113,0.0,0.7,87,0.00,,,0.00,WUHU216HW,2013-12-02 13:07:00,
2013-12-02 07:12:00,22.1,18.8,29.41,ESE,113,0.4,0.4,87,0.00,,,0.00,WUHU216HW,2013-12-02 13:12:00,
2013-12-02 07:17:00,22.3,19.0,29.40,SE,135,1.6,1.6,87,0.00,,,0.00,WUHU216HW,2013-12-02 13:17:00,
2013-12-02 07:22:00,22.5,19.2,29.40,SE,135,1.6,1.8,87,0.00,,,0.00,WUHU216HW,2013-12-02 13:22:00,
2013-12-02 07:27:00,22.7,19.4,29.40,SE,135,1.1,1.8,87,0.00,,,0.00,WUHU216HW,2013-12-02 13:27:00,
2013-12-02 07:32:00,22.7,19.4,29.41,SE,135,0.2,1.6,87,0.00,,,0.00,WUHU216HW,2013-12-02 13:32:00,
2013-12-02 07:37:00,22.5,19.2,29.41,SE,135,0.0,1.1,87,0.00,,,0.00,WUHU216HW,2013-12-02 13:37:00,
2013-12-02 07:42:00,22.5,19.2,29.41,SE,135,0.0,0.4,87,0.00,,,0.00,WUHU216HW,2013-12-02 13:42:00,
2013-12-02 07:47:00,22.5,19.2,29.42,SE,135,0.0,0.0,87,0.00,,,0.00,WUHU216HW,2013-12-02 13:47:00,
2013-12-02 07:52:00,22.9,19.8,29.42,ESE,113,0.0,0.0,88,0.00,,,0.00,WUHU216HW,2013-12-02 13:52:00,
2013-12-02 07:57:00,23.4,20.3,29.42,ESE,113,0.0,0.0,88,0.00,,,0.00,WUHU216HW,2013-12-02 13:57:00,
2013-12-02 08:02:00,23.4,20.3,29.43,NE,45,0.2,0.2,88,0.00,,,0.00,WUHU216HW,2013-12-02 14:02:00,
2013-12-02 08:07:00,23.4,20.3,29.43,NE,45,0.2,0.2,88,0.00,,,0.00,WUHU216HW,2013-12-02 14:07:00,
2013-12-02 08:12:00,23.8,20.7,29.42,NE,45,0.0,0.4,88,0.00,,,0.00,WUHU216HW,2013-12-02 14:12:00,
2013-12-02 08:17:00,24.1,21.1,29.42,NE,45,0.0,0.4,88,0.00,,,0.00,WUHU216HW,2013-12-02 14:17:00,
2013-12-02 08:22:00,24.3,21.2,29.42,NE,45,0.0,0.0,88,0.00,,,0.00,WUHU216HW,2013-12-02 14:22:00,
2013-12-02 08:27:00,24.8,21.8,29.42,NE,45,0.0,0.0,88,0.00,,,0.00,WUHU216HW,2013-12-02 14:27:00,
2013-12-02 08:32:00,25.2,22.7,29.42,NE,45,0.0,0.0,90,0.00,,,0.00,WUHU216HW,2013-12-02 14:32:00,
2013-12-02 08:37:00,26.1,23.6,29.42,ENE,68,0.2,0.2,90,0.00,,,0.00,WUHU216HW,2013-12-02 14:37:00,
2013-12-02 08:42:00,26.5,23.9,29.42,SE,135,0.7,0.7,90,0.00,,,0.00,WUHU216HW,2013-12-02 14:42:00,
2013-12-02 08:47:00,27.2,24.7,29.42,SE,135,2.0,2.0,90,0.00,,,0.00,WUHU216HW,2013-12-02 14:47:00,
2013-12-02 08:52:00,27.7,25.2,29.41,SE,135,1.8,2.0,90,0.00,,,0.00,WUHU216HW,2013-12-02 14:52:00,
2013-12-02 08:57:00,28.3,25.7,29.41,SE,135,2.7,2.7,90,0.00,,,0.00,WUHU216HW,2013-12-02 14:57:00,
2013-12-02 09:02:00,28.6,26.1,29.41,SE,135,2.7,2.7,90,0.00,,,0.00,WUHU216HW,2013-12-02 15:02:00,
2013-12-02 09:07:00,29.0,26.2,29.41,SE,135,3.8,3.8,89,0.00,,,0.00,WUHU216HW,2013-12-02 15:07:00,
2013-12-02 09:12:00,29.7,26.9,29.41,SE,135,2.2,3.8,89,0.00,,,0.00,WUHU216HW,2013-12-02 15:12:00,
2013-12-02 09:17:00,30.1,27.3,29.41,ESE,113,3.4,3.8,89,0.00,,,0.00,WUHU216HW,2013-12-02 15:17:00,
2013-12-02 09:22:00,30.6,27.8,29.41,SE,135,1.8,3.4,89,0.00,,,0.00,WUHU216HW,2013-12-02 15:22:00,
2013-12-02 09:27:00,30.8,28.0,29.41,East,90,2.7,3.4,89,0.00,,,0.00,WUHU216HW,2013-12-02 15:27:00,
2013-12-02 09:32:00,31.0,28.4,29.41,East,90,1.3,2.7,90,0.00,,,0.00,WUHU216HW,2013-12-02 15:32:00,
2013-12-02 09:37:00,31.7,28.9,29.41,SE,135,4.3,4.3,89,0.00,,,0.00,WUHU216HW,2013-12-02 15:37:00,
2013-12-02 09:42:00,32.0,29.3,29.41,ESE,113,4.9,4.9,89,0.00,,,0.00,WUHU216HW,2013-12-02 15:42:00,
2013-12-02 09:47:00,32.4,29.5,29.41,SE,135,4.9,4.9,89,0.00,,,0.00,WUHU216HW,2013-12-02 15:47:00,
2013-12-02 09:52:00,32.9,30.1,29.41,SE,135,5.4,5.4,89,0.00,,,0.00,WUHU216HW,2013-12-02 15:52:00,
2013-12-02 09:57:00,33.1,30.3,29.40,SE,135,5.6,5.6,89,0.00,,,0.00,WUHU216HW,2013-12-02 15:57:00,
2013-12-02 10:02:00,33.5,30.2,29.40,SE,135,4.5,5.6,88,0.00,,,0.00,WUHU216HW,2013-12-02 16:02:00,
2013-12-02 10:07:00,33.5,30.2,29.40,SE,135,4.5,5.6,88,0.00,,,0.00,WUHU216HW,2013-12-02 16:07:00,
2013-12-02 10:12:00,33.5,30.2,29.40,SE,135,4.5,4.5,88,0.00,,,0.00,WUHU216HW,2013-12-02 16:12:00,
2013-12-02 10:17:00,34.6,31.0,29.40,ESE,113,5.8,6.7,87,0.00,,,0.00,WUHU216HW,2013-12-02 16:17:00,
2013-12-02 10:22:00,34.7,31.1,29.40,SE,135,8.3,8.3,87,0.00,,,0.00,WUHU216HW,2013-12-02 16:22:00,
2013-12-02 10:27:00,34.9,31.1,29.40,SE,135,7.4,8.3,86,0.00,,,0.00,WUHU216HW,2013-12-02 16:27:00,
2013-12-02 10:32:00,34.9,31.1,29.40,SE,135,5.4,8.3,86,0.00,,,0.00,WUHU216HW,2013-12-02 16:32:00,
2013-12-02 10:37:00,34.9,31.1,29.39,SE,135,6.3,7.4,86,0.00,,,0.00,WUHU216HW,2013-12-02 16:37:00,
2013-12-02 10:42:00,34.9,31.1,29.39,SE,135,7.4,7.4,86,0.00,,,0.00,WUHU216HW,2013-12-02 16:42:00,
2013-12-02 10:47:00,35.1,31.2,29.39,SE,135,6.9,7.4,86,0.00,,,0.00,WUHU216HW,2013-12-02 16:47:00,
2013-12-02 10:52:00,35.3,31.4,29.38,ESE,113,7.2,7.4,86,0.00,,,0.00,WUHU216HW,2013-12-02 16:52:00,
2013-12-02 10:57:00,35.3,31.1,29.38,ESE,113,8.1,8.7,85,0.00,,,0.00,WUHU216HW,2013-12-02 16:57:00,
2013-12-02 11:02:00,35.3,31.1,29.38,SE,135,8.1,8.7,85,0.00,,,0.00,WUHU216HW,2013-12-02 17:02:00,
2013-12-02 11:07:00,35.3,31.1,29.37,SE,135,8.1,8.1,85,0.00,,,0.00,WUHU216HW,2013-12-02 17:07:00,
2013-12-02 11:12:00,35.3,31.1,29.37,SE,135,8.1,8.1,85,0.00,,,0.00,WUHU216HW,2013-12-02 17:12:00,
2013-12-02 11:17:00,35.3,31.1,29.37,SE,135,8.1,8.1,85,0.00,,,0.00,WUHU216HW,2013-12-02 17:17:00,
2013-12-02 11:22:00,35.6,31.5,29.37,SE,135,6.5,8.1,85,0.00,,,0.00,WUHU216HW,2013-12-02 17:22:00,
2013-12-02 11:27:00,35.8,31.7,29.37,SE,135,7.2,7.4,85,0.00,,,0.00,WUHU216HW,2013-12-02 17:27:00,
2013-12-02 11:32:00,36.0,31.9,29.37,SE,135,6.7,7.2,85,0.00,,,0.00,WUHU216HW,2013-12-02 17:32:00,
2013-12-02 11:37:00,36.2,32.0,29.37,SE,135,5.8,7.2,85,0.00,,,0.00,WUHU216HW,2013-12-02 17:37:00,
2013-12-02 11:42:00,36.4,32.2,29.37,SSE,158,6.3,6.7,85,0.00,,,0.00,WUHU216HW,2013-12-02 17:42:00,
2013-12-02 11:47:00,36.4,32.2,29.37,SE,135,6.9,6.9,85,0.00,,,0.00,WUHU216HW,2013-12-02 17:47:00,
2013-12-02 11:52:00,36.5,32.1,29.37,SE,135,5.6,7.2,84,0.00,,,0.00,WUHU216HW,2013-12-02 17:52:00,
2013-12-02 11:57:00,36.5,32.1,29.37,SE,135,5.6,7.2,84,0.00,,,0.00,WUHU216HW,2013-12-02 17:57:00,
2013-12-02 12:02:00,36.5,32.1,29.36,SE,135,5.6,5.6,84,0.00,,,0.00,WUHU216HW,2013-12-02 18:02:00,
2013-12-02 12:07:00,36.7,32.3,29.36,SE,135,6.3,7.6,84,0.00,,,0.00,WUHU216HW,2013-12-02 18:07:00,
2013-12-02 12:12:00,36.9,32.5,29.36,ESE,113,9.4,9.4,84,0.00,,,0.00,WUHU216HW,2013-12-02 18:12:00,
2013-12-02 12:17:00,36.9,32.5,29.36,SE,135,7.8,9.4,84,0.00,,,0.00,WUHU216HW,2013-12-02 18:17:00,
2013-12-02 12:22:00,36.9,32.5,29.35,SE,135,4.7,9.4,84,0.00,,,0.00,WUHU216HW,2013-12-02 18:22:00,
2013-12-02 12:27:00,37.1,32.7,29.35,SE,135,6.7,7.8,84,0.00,,,0.00,WUHU216HW,2013-12-02 18:27:00,
2013-12-02 12:32:00,36.9,32.2,29.35,SE,135,6.7,6.7,83,0.00,,,0.00,WUHU216HW,2013-12-02 18:32:00,
2013-12-02 12:37:00,37.1,32.4,29.35,SE,135,7.6,8.1,83,0.00,,,0.00,WUHU216HW,2013-12-02 18:37:00,
2013-12-02 12:42:00,37.1,32.4,29.35,SE,135,5.6,8.1,83,0.00,,,0.00,WUHU216HW,2013-12-02 18:42:00,
2013-12-02 12:47:00,37.1,32.4,29.35,ESE,113,6.9,7.6,83,0.00,,,0.00,WUHU216HW,2013-12-02 18:47:00,
2013-12-02 12:52:00,37.1,32.4,29.35,SE,135,6.9,6.9,83,0.00,,,0.00,WUHU216HW,2013-12-02 18:52:00,
2013-12-02 12:57:00,37.1,32.4,29.35,SE,135,6.0,6.9,83,0.00,,,0.00,WUHU216HW,2013-12-02 18:57:00,
2013-12-02 13:02:00,37.1,32.4,29.34,SE,135,6.0,6.9,83,0.00,,,0.00,WUHU216HW,2013-12-02 19:02:00,
2013-12-02 13:07:00,37.1,32.4,29.34,SE,135,6.0,6.0,83,0.00,,,0.00,WUHU216HW,2013-12-02 19:07:00,
2013-12-02 13:12:00,36.9,31.9,29.35,SE,135,5.1,6.0,82,0.00,,,0.00,WUHU216HW,2013-12-02 19:12:00,
2013-12-02 13:17:00,37.1,32.0,29.35,SE,135,5.4,6.0,82,0.00,,,0.00,WUHU216HW,2013-12-02 19:17:00,
2013-12-02 13:22:00,36.9,31.9,29.34,SSE,158,5.4,7.2,82,0.00,,,0.00,WUHU216HW,2013-12-02 19:22:00,
2013-12-02 13:27:00,36.7,31.7,29.34,ESE,113,7.6,7.6,82,0.00,,,0.00,WUHU216HW,2013-12-02 19:27:00,
2013-12-02 13:32:00,36.7,31.7,29.34,SE,135,6.3,7.6,82,0.00,,,0.00,WUHU216HW,2013-12-02 19:32:00,
2013-12-02 13:37:00,36.7,31.7,29.34,ESE,113,6.9,7.6,82,0.00,,,0.00,WUHU216HW,2013-12-02 19:37:00,
2013-12-02 13:42:00,36.9,31.9,29.33,SE,135,6.3,6.9,82,0.00,,,0.00,WUHU216HW,2013-12-02 19:42:00,
2013-12-02 13:47:00,36.9,31.9,29.33,SE,135,6.9,6.9,82,0.00,,,0.00,WUHU216HW,2013-12-02 19:47:00,
2013-12-02 13:52:00,36.9,31.9,29.33,SE,135,5.8,6.9,82,0.00,,,0.00,WUHU216HW,2013-12-02 19:52:00,
2013-12-02 13:57:00,36.9,31.9,29.33,SE,135,5.8,6.9,82,0.00,,,0.00,WUHU216HW,2013-12-02 19:57:00,
2013-12-02 14:02:00,36.9,31.9,29.32,SE,135,5.8,5.8,82,0.00,,,0.00,WUHU216HW,2013-12-02 20:02:00,
2013-12-02 14:07:00,37.3,32.2,29.32,ESE,113,5.8,6.9,82,0.00,,,0.00,WUHU216HW,2013-12-02 20:07:00,
2013-12-02 14:12:00,37.4,32.4,29.32,SE,135,8.5,8.5,82,0.00,,,0.00,WUHU216HW,2013-12-02 20:12:00,
2013-12-02 14:17:00,37.8,32.5,29.32,SE,135,7.2,8.5,81,0.00,,,0.00,WUHU216HW,2013-12-02 20:17:00,
2013-12-02 14:22:00,38.3,33.0,29.31,SE,135,8.7,8.7,81,0.00,,,0.00,WUHU216HW,2013-12-02 20:22:00,
2013-12-02 14:27:00,38.3,32.8,29.31,SE,135,6.5,8.7,80,0.00,,,0.00,WUHU216HW,2013-12-02 20:27:00,
2013-12-02 14:32:00,38.3,32.8,29.31,SE,135,8.7,8.7,80,0.00,,,0.00,WUHU216HW,2013-12-02 20:32:00,
2013-12-02 14:37:00,38.0,32.4,29.31,ESE,113,6.9,8.7,80,0.00,,,0.00,WUHU216HW,2013-12-02 20:37:00,
2013-12-02 14:42:00,37.8,32.2,29.31,ESE,113,8.9,8.9,80,0.00,,,0.00,WUHU216HW,2013-12-02 20:42:00,
2013-12-02 14:47:00,37.8,31.9,29.31,SE,135,6.5,8.9,79,0.00,,,0.00,WUHU216HW,2013-12-02 20:47:00,
2013-12-02 14:52:00,37.6,31.7,29.31,SE,135,6.7,8.9,79,0.00,,,0.00,WUHU216HW,2013-12-02 20:52:00,
2013-12-02 14:57:00,37.4,31.5,29.30,SE,135,8.5,8.5,79,0.00,,,0.00,WUHU216HW,2013-12-02 20:57:00,
2013-12-02 15:02:00,37.3,31.3,29.30,East,90,7.8,8.5,79,0.00,,,0.00,WUHU216HW,2013-12-02 21:02:00,
2013-12-02 15:07:00,37.1,31.1,29.30,SE,135,7.8,8.5,79,0.00,,,0.00,WUHU216HW,2013-12-02 21:07:00,
2013-12-02 15:12:00,37.1,31.1,29.30,ESE,113,7.6,7.8,79,0.00,,,0.00,WUHU216HW,2013-12-02 21:12:00,
2013-12-02 15:17:00,37.1,31.1,29.30,SE,135,5.6,7.8,79,0.00,,,0.00,WUHU216HW,2013-12-02 21:17:00,
2013-12-02 15:22:00,37.1,31.1,29.31,SE,135,6.5,7.6,79,0.00,,,0.00,WUHU216HW,2013-12-02 21:22:00,
2013-12-02 15:27:00,37.1,31.1,29.30,SE,135,4.0,6.5,79,0.00,,,0.00,WUHU216HW,2013-12-02 21:27:00,
2013-12-02 15:32:00,37.1,31.1,29.31,ESE,113,4.5,6.5,79,0.00,,,0.00,WUHU216HW,2013-12-02 21:32:00,
2013-12-02 15:37:00,37.1,31.1,29.31,SE,135,4.0,5.6,79,0.00,,,0.00,WUHU216HW,2013-12-02 21:37:00,
2013-12-02 15:42:00,36.9,31.0,29.31,SE,135,5.6,5.6,79,0.00,,,0.00,WUHU216HW,2013-12-02 21:42:00,
2013-12-02 15:47:00,36.7,30.8,29.31,SE,135,4.7,5.6,79,0.00,,,0.00,WUHU216HW,2013-12-02 21:47:00,
2013-12-02 15:52:00,36.5,30.6,29.31,ESE,113,5.1,5.6,79,0.00,,,0.00,WUHU216HW,2013-12-02 21:52:00,
2013-12-02 15:57:00,36.4,30.4,29.31,SE,135,6.3,6.3,79,0.00,,,0.00,WUHU216HW,2013-12-02 21:57:00,
2013-12-02 16:02:00,36.4,30.4,29.30,SE,135,6.3,6.3,79,0.00,,,0.00,WUHU216HW,2013-12-02 22:02:00,
2013-12-02 16:07:00,36.4,30.4,29.30,SE,135,6.3,6.3,79,0.00,,,0.00,WUHU216HW,2013-12-02 22:07:00,
2013-12-02 16:12:00,35.5,29.5,29.30,SE,135,5.4,6.3,79,0.00,,,0.00,WUHU216HW,2013-12-02 22:12:00,
2013-12-02 16:17:00,35.3,29.3,29.30,ESE,113,4.3,6.3,79,0.00,,,0.00,WUHU216HW,2013-12-02 22:17:00,
2013-12-02 16:22:00,34.9,29.3,29.30,ESE,113,3.8,5.4,80,0.00,,,0.00,WUHU216HW,2013-12-02 22:22:00,
2013-12-02 16:27:00,34.6,29.0,29.30,ESE,113,2.9,4.3,80,0.00,,,0.00,WUHU216HW,2013-12-02 22:27:00,
2013-12-02 16:32:00,34.2,28.6,29.30,ESE,113,2.2,3.8,80,0.00,,,0.00,WUHU216HW,2013-12-02 22:32:00,
2013-12-02 16:37:00,33.8,28.3,29.30,ENE,68,2.0,2.9,80,0.00,,,0.00,WUHU216HW,2013-12-02 22:37:00,
2013-12-02 16:42:00,33.5,27.9,29.30,ESE,113,4.0,4.0,80,0.00,,,0.00,WUHU216HW,2013-12-02 22:42:00,
2013-12-02 16:47:00,33.5,28.3,29.30,East,90,4.3,4.3,81,0.00,,,0.00,WUHU216HW,2013-12-02 22:47:00,
2013-12-02 16:52:00,33.3,28.1,29.30,SE,135,5.4,5.6,81,0.00,,,0.00,WUHU216HW,2013-12-02 22:52:00,
2013-12-02 16:57:00,33.3,28.1,29.30,ESE,113,5.8,5.8,81,0.00,,,0.00,WUHU216HW,2013-12-02 22:57:00,
2013-12-02 17:02:00,33.3,28.1,29.30,SE,135,5.6,5.8,81,0.00,,,0.00,WUHU216HW,2013-12-02 23:02:00,
2013-12-02 17:07:00,33.5,28.3,29.30,ESE,113,8.7,8.7,81,0.00,,,0.00,WUHU216HW,2013-12-02 23:07:00,
2013-12-02 17:12:00,33.5,28.5,29.30,SE,135,6.9,8.7,82,0.00,,,0.00,WUHU216HW,2013-12-02 23:12:00,
2013-12-02 17:17:00,33.5,28.5,29.30,SE,135,9.8,9.8,82,0.00,,,0.00,WUHU216HW,2013-12-02 23:17:00,
2013-12-02 17:22:00,33.7,28.7,29.30,SE,135,7.6,9.8,82,0.00,,,0.00,WUHU216HW,2013-12-02 23:22:00,
2013-12-02 17:27:00,33.7,28.7,29.30,SE,135,7.6,9.8,82,0.00,,,0.00,WUHU216HW,2013-12-02 23:27:00,
2013-12-02 17:32:00,33.7,28.7,29.30,SE,135,9.2,9.2,82,0.00,,,0.00,WUHU216HW,2013-12-02 23:32:00,
2013-12-02 17:37:00,33.8,28.8,29.31,SE,135,7.8,9.2,82,0.00,,,0.00,WUHU216HW,2013-12-02 23:37:00,
2013-12-02 17:42:00,33.8,28.8,29.30,ESE,113,6.0,9.2,82,0.00,,,0.00,WUHU216HW,2013-12-02 23:42:00,
2013-12-02 17:47:00,33.8,28.8,29.30,SE,135,7.2,8.1,82,0.00,,,0.00,WUHU216HW,2013-12-02 23:47:00,
2013-12-02 17:52:00,33.8,28.8,29.31,ESE,113,7.4,7.8,82,0.00,,,0.00,WUHU216HW,2013-12-02 23:52:00,
2013-12-02 17:57:00,33.8,28.8,29.31,SE,135,6.9,7.4,82,0.00,,,0.00,WUHU216HW,2013-12-02 23:57:00,
2013-12-02 18:02:00,33.8,28.8,29.31,ESE,113,7.6,7.6,82,0.00,,,0.00,WUHU216HW,2013-12-03 00:02:00,
2013-12-02 18:07:00,33.8,28.8,29.31,SE,135,8.1,8.1,82,0.00,,,0.00,WUHU216HW,2013-12-03 00:07:00,
2013-12-02 18:12:00,33.8,28.8,29.31,SE,135,7.6,8.1,82,0.00,,,0.00,WUHU216HW,2013-12-03 00:12:00,
2013-12-02 18:17:00,33.8,28.8,29.31,ESE,113,7.4,8.7,82,0.00,,,0.00,WUHU216HW,2013-12-03 00:17:00,
2013-12-02 18:22:00,33.8,28.8,29.31,SE,135,6.5,8.7,82,0.00,,,0.00,WUHU216HW,2013-12-03 00:22:00,
2013-12-02 18:27:00,33.8,28.8,29.31,ESE,113,7.8,7.8,82,0.00,,,0.00,WUHU216HW,2013-12-03 00:27:00,
2013-12-02 18:32:00,33.8,28.8,29.31,ESE,113,7.8,7.8,82,0.00,,,0.00,WUHU216HW,2013-12-03 00:32:00,
2013-12-02 18:37:00,33.8,28.8,29.31,ESE,113,7.8,7.8,82,0.00,,,0.00,WUHU216HW,2013-12-03 00:37:00,
2013-12-02 18:42:00,33.8,29.2,29.30,ESE,113,5.1,7.8,83,0.00,,,0.00,WUHU216HW,2013-12-03 00:42:00,
2013-12-02 18:47:00,33.8,29.2,29.30,ESE,113,7.6,7.8,83,0.00,,,0.00,WUHU216HW,2013-12-03 00:47:00,
2013-12-02 18:52:00,33.8,29.2,29.30,ESE,113,7.6,7.6,83,0.00,,,0.00,WUHU216HW,2013-12-03 00:52:00,
2013-12-02 18:57:00,33.8,29.2,29.30,ESE,113,7.6,7.6,83,0.00,,,0.00,WUHU216HW,2013-12-03 00:57:00,
2013-12-02 19:02:00,33.7,29.0,29.30,ESE,113,3.6,7.6,83,0.00,,,0.00,WUHU216HW,2013-12-03 01:02:00,
2013-12-02 19:07:00,33.7,29.0,29.30,SE,135,7.6,7.6,83,0.00,,,0.00,WUHU216HW,2013-12-03 01:07:00,
2013-12-02 19:12:00,33.7,29.0,29.29,SE,135,5.4,7.6,83,0.00,,,0.00,WUHU216HW,2013-12-03 01:12:00,
2013-12-02 19:17:00,33.5,28.8,29.30,ESE,113,7.2,7.6,83,0.00,,,0.00,WUHU216HW,2013-12-03 01:17:00,
2013-12-02 19:22:00,33.5,28.8,29.29,SSE,158,8.7,8.7,83,0.00,,,0.00,WUHU216HW,2013-12-03 01:22:00,
2013-12-02 19:27:00,33.5,28.8,29.29,SE,135,6.3,8.7,83,0.00,,,0.00,WUHU216HW,2013-12-03 01:27:00,
2013-12-02 19:32:00,33.7,29.0,29.30,ESE,113,9.6,9.6,83,0.00,,,0.00,WUHU216HW,2013-12-03 01:32:00,
2013-12-02 19:37:00,33.7,29.0,29.29,SE,135,5.4,9.6,83,0.00,,,0.00,WUHU216HW,2013-12-03 01:37:00,
2013-12-02 19:42:00,33.7,29.0,29.30,ESE,113,6.9,9.8,83,0.00,,,0.00,WUHU216HW,2013-12-03 01:42:00,
2013-12-02 19:47:00,33.8,29.2,29.29,ESE,113,7.6,9.8,83,0.00,,,0.00,WUHU216HW,2013-12-03 01:47:00,
2013-12-02 19:52:00,33.8,29.2,29.29,SE,135,7.6,9.2,83,0.00,,,0.00,WUHU216HW,2013-12-03 01:52:00,
2013-12-02 19:57:00,34.0,29.6,29.29,ESE,113,9.4,9.4,84,0.00,,,0.00,WUHU216HW,2013-12-03 01:57:00,
2013-12-02 20:02:00,34.0,29.6,29.29,SE,135,7.8,9.4,84,0.00,,,0.00,WUHU216HW,2013-12-03 02:02:00,
2013-12-02 20:07:00,34.0,29.6,29.29,SE,135,8.5,9.4,84,0.00,,,0.00,WUHU216HW,2013-12-03 02:07:00,
2013-12-02 20:12:00,34.0,29.6,29.29,SE,135,8.3,9.6,84,0.00,,,0.00,WUHU216HW,2013-12-03 02:12:00,
2013-12-02 20:17:00,34.0,29.6,29.29,ESE,113,9.4,9.6,84,0.00,,,0.00,WUHU216HW,2013-12-03 02:17:00,
2013-12-02 20:22:00,34.0,29.6,29.29,SE,135,7.8,9.4,84,0.00,,,0.00,WUHU216HW,2013-12-03 02:22:00,
2013-12-02 20:27:00,34.0,29.6,29.29,SE,135,10.1,10.1,84,0.00,,,0.00,WUHU216HW,2013-12-03 02:27:00,
2013-12-02 20:32:00,34.2,29.8,29.30,SE,135,6.9,10.1,84,0.00,,,0.00,WUHU216HW,2013-12-03 02:32:00,
2013-12-02 20:37:00,34.2,29.8,29.30,SE,135,8.1,10.1,84,0.00,,,0.00,WUHU216HW,2013-12-03 02:37:00,
2013-12-02 20:42:00,34.2,29.5,29.30,SE,135,6.7,8.9,83,0.00,,,0.00,WUHU216HW,2013-12-03 02:42:00,
2013-12-02 20:47:00,34.2,29.5,29.30,ESE,113,5.8,8.9,83,0.00,,,0.00,WUHU216HW,2013-12-03 02:47:00,
2013-12-02 20:52:00,34.4,29.7,29.30,SE,135,7.6,8.5,83,0.00,,,0.00,WUHU216HW,2013-12-03 02:52:00,
2013-12-02 20:57:00,34.4,29.7,29.30,ESE,113,9.6,11.4,83,0.00,,,0.00,WUHU216HW,2013-12-03 02:57:00,
2013-12-02 21:02:00,34.6,29.5,29.30,SE,135,6.9,11.4,82,0.00,,,0.00,WUHU216HW,2013-12-03 03:02:00,
2013-12-02 21:07:00,34.6,29.5,29.30,SE,135,8.7,10.5,82,0.00,,,0.00,WUHU216HW,2013-12-03 03:07:00,
2013-12-02 21:12:00,34.6,29.5,29.30,ESE,113,11.9,11.9,82,0.00,,,0.00,WUHU216HW,2013-12-03 03:12:00,
2013-12-02 21:17:00,34.6,29.5,29.30,East,90,8.9,11.9,82,0.00,,,0.00,WUHU216HW,2013-12-03 03:17:00,
2013-12-02 21:22:00,34.6,29.5,29.30,SE,135,12.1,12.1,82,0.00,,,0.00,WUHU216HW,2013-12-03 03:22:00,
2013-12-02 21:27:00,34.4,29.3,29.30,SE,135,8.9,12.1,82,0.00,,,0.00,WUHU216HW,2013-12-03 03:27:00,
2013-12-02 21:32:00,34.2,29.5,29.31,ESE,113,6.5,12.5,83,0.00,,,0.00,WUHU216HW,2013-12-03 03:32:00,
2013-12-02 21:37:00,34.2,29.5,29.31,ESE,113,8.1,12.5,83,0.00,,,0.00,WUHU216HW,2013-12-03 03:37:00,
2013-12-02 21:42:00,34.0,29.6,29.31,SSE,158,8.5,8.5,84,0.00,,,0.00,WUHU216HW,2013-12-03 03:42:00,
2013-12-02 21:47:00,33.8,29.2,29.30,ESE,113,8.5,8.5,83,0.00,,,0.00,WUHU216HW,2013-12-03 03:47:00,
2013-12-02 21:52:00,33.5,29.1,29.30,ESE,113,7.6,8.5,84,0.00,,,0.00,WUHU216HW,2013-12-03 03:52:00,
2013-12-02 21:57:00,33.3,28.9,29.30,SE,135,8.5,8.5,84,0.00,,,0.00,WUHU216HW,2013-12-03 03:57:00,
2013-12-02 22:02:00,33.1,29.1,29.29,SE,135,10.1,10.1,85,0.00,,,0.00,WUHU216HW,2013-12-03 04:02:00,
2013-12-02 22:07:00,33.1,29.1,29.30,SE,135,9.8,10.1,85,0.00,,,0.00,WUHU216HW,2013-12-03 04:07:00,
2013-12-02 22:12:00,32.9,29.2,29.30,SE,135,7.6,10.1,86,0.00,,,0.00,WUHU216HW,2013-12-03 04:12:00,
2013-12-02 22:17:00,32.8,29.0,29.30,ESE,113,5.8,7.6,86,0.00,,,0.00,WUHU216HW,2013-12-03 04:17:00,
2013-12-02 22:22:00,32.8,29.0,29.30,SE,135,7.8,7.8,86,0.00,,,0.00,WUHU216HW,2013-12-03 04:22:00,
2013-12-02 22:27:00,32.6,28.9,29.29,SE,135,6.3,7.8,86,0.00,,,0.00,WUHU216HW,2013-12-03 04:27:00,
2013-12-02 22:32:00,32.6,29.2,29.29,SE,135,6.9,9.2,87,0.00,,,0.00,WUHU216HW,2013-12-03 04:32:00,
2013-12-02 22:37:00,32.6,29.2,29.29,East,90,4.7,9.2,87,0.00,,,0.00,WUHU216HW,2013-12-03 04:37:00,
2013-12-02 22:42:00,32.4,29.3,29.29,ESE,113,6.5,6.9,88,0.00,,,0.00,WUHU216HW,2013-12-03 04:42:00,
2013-12-02 22:47:00,32.4,29.3,29.29,SE,135,6.7,6.7,88,0.00,,,0.00,WUHU216HW,2013-12-03 04:47:00,
2013-12-02 22:52:00,32.4,29.3,29.29,SE,135,6.3,6.7,88,0.00,,,0.00,WUHU216HW,2013-12-03 04:52:00,
2013-12-02 22:57:00,32.2,29.1,29.29,ESE,113,5.6,6.7,88,0.00,,,0.00,WUHU216HW,2013-12-03 04:57:00,
2013-12-02 23:01:00,32.2,29.1,29.29,ESE,113,6.7,6.7,88,0.00,,,0.00,WUHU216HW,2013-12-03 05:01:00,
2013-12-02 23:02:00,32.2,29.1,29.29,ESE,113,6.7,6.7,88,0.00,,,0.00,WUHU216HW,2013-12-03 05:02:00,
2013-12-02 23:07:00,32.2,29.4,29.29,ESE,113,6.0,6.7,89,0.00,,,0.00,WUHU216HW,2013-12-03 05:07:00,
2013-12-02 23:12:00,32.0,29.3,29.29,ESE,113,6.3,6.7,89,0.00,,,0.00,WUHU216HW,2013-12-03 05:12:00,
2013-12-02 23:17:00,32.0,29.3,29.29,ESE,113,6.5,6.5,89,0.00,,,0.00,WUHU216HW,2013-12-03 05:17:00,
2013-12-02 23:22:00,32.0,29.3,29.29,SSE,158,7.4,7.4,89,0.00,,,0.00,WUHU216HW,2013-12-03 05:22:00,
2013-12-02 23:27:00,32.0,29.3,29.29,SE,135,6.0,7.4,89,0.00,,,0.00,WUHU216HW,2013-12-03 05:27:00,
2013-12-02 23:32:00,32.0,29.3,29.28,SE,135,6.0,7.4,89,0.00,,,0.00,WUHU216HW,2013-12-03 05:32:00,
2013-12-02 23:37:00,32.0,29.3,29.28,SE,135,6.0,6.0,89,0.00,,,0.00,WUHU216HW,2013-12-03 05:37:00,
2013-12-02 23:42:00,32.0,29.5,29.28,SE,135,8.3,8.3,90,0.00,,,0.00,WUHU216HW,2013-12-03 05:42:00,
2013-12-02 23:47:00,32.0,29.5,29.27,SSE,158,9.6,9.6,90,0.00,,,0.00,WUHU216HW,2013-12-03 05:47:00,
2013-12-02 23:52:00,32.0,29.5,29.27,ESE,113,7.6,9.6,90,0.00,,,0.00,WUHU216HW,2013-12-03 05:52:00,
2013-12-02 23:57:00,32.2,29.7,29.27,ESE,113,8.3,9.6,90,0.00,,,0.00,WUHU216HW,2013-12-03 05:57:00,